M I D A S
Marine Information and Data Acquisition System
Tripno 1722 of the Zeeleeuw from 2009-02-13 09:01:58 to 2009-02-13 12:51:45
Back to CruiseResearch ActivitiesStationsMapUnderway DataData graphs

EquipmentUnitsComment
TimeDGPSUTC
LatitudeDGPSDM.mWGS84
LongitudeDGPSDM.mWGS84
HeadingGyrodeg 
SOGDGPSknotsSpeed over ground
COGDGPSdegCourse over ground
DepthEcho soundermeters200 kHz
Missing or incorrect values are displayed as -999
Navigation data collected by the RV Zeeleeuw from 2009-02-13 09:01:47 to 2009-02-13 13:00:09
                                                                                    Next 1000 lines
Time Latitude Longitude Heading SOG COG Depth
2009-02-13 09:01:57 51°13.663 2°55.958 116 0.5 304 -999
2009-02-13 09:02:02 51°13.663 2°55.956 116 0.8 300 -999
2009-02-13 09:02:07 51°13.664 2°55.954 115.5 1.1 297 -999
2009-02-13 09:02:12 51°13.665 2°55.951 114.8 1.4 297 -999
2009-02-13 09:02:17 51°13.666 2°55.948 114 1.6 297 -999
2009-02-13 09:02:22 51°13.667 2°55.945 113.6 1.7 296 -999
2009-02-13 09:02:27 51°13.668 2°55.941 113.2 1.9 295 -999
2009-02-13 09:02:32 51°13.67 2°55.937 113.1 2.1 296 -999
2009-02-13 09:02:37 51°13.671 2°55.933 113.1 2.2 297 -999
2009-02-13 09:02:42 51°13.672 2°55.928 113.3 2.4 299 -999
2009-02-13 09:02:47 51°13.674 2°55.924 113.6 2.5 299 -999
2009-02-13 09:02:52 51°13.675 2°55.919 114 2.6 299 -999
2009-02-13 09:02:57 51°13.677 2°55.914 114.4 2.7 299 -999
2009-02-13 09:03:02 51°13.679 2°55.908 114.6 2.8 301 -999
2009-02-13 09:03:07 51°13.68 2°55.903 114.7 2.9 301 -999
2009-02-13 09:03:12 51°13.683 2°55.897 114.5 3 299 -999
2009-02-13 09:03:17 51°13.685 2°55.891 113.7 3.1 300 -999
2009-02-13 09:03:22 51°13.687 2°55.885 112.9 3.1 298 -999
2009-02-13 09:03:27 51°13.689 2°55.879 111.9 3.2 297 -999
2009-02-13 09:03:32 51°13.691 2°55.872 110.5 3.3 296 -999
2009-02-13 09:03:37 51°13.694 2°55.866 109 3.5 296 -999
2009-02-13 09:03:42 51°13.695 2°55.859 107.9 3.5 294 -999
2009-02-13 09:03:47 51°13.698 2°55.851 107 3.7 292 -999
2009-02-13 09:03:52 51°13.699 2°55.843 105.8 3.8 290 -999
2009-02-13 09:03:57 51°13.701 2°55.835 104 3.9 288 -999
2009-02-13 09:04:02 51°13.702 2°55.826 102 4 286 -999
2009-02-13 09:04:07 51°13.704 2°55.818 99.6 4.1 283 -999
2009-02-13 09:04:12 51°13.705 2°55.809 97.1 3.9 281 -999
2009-02-13 09:04:17 51°13.706 2°55.801 93.7 3.8 278 -999
2009-02-13 09:04:22 51°13.706 2°55.793 91.5 3.7 276 -999
2009-02-13 09:04:27 51°13.707 2°55.785 88.8 3.4 273 -999
2009-02-13 09:04:32 51°13.707 2°55.778 86.5 3.3 272 -999
2009-02-13 09:04:37 51°13.707 2°55.771 84.4 3.1 270 -999
2009-02-13 09:04:42 51°13.707 2°55.764 83.4 2.9 269 -999
2009-02-13 09:04:47 51°13.707 2°55.758 82.2 2.8 268 -999
2009-02-13 09:04:52 51°13.706 2°55.752 81.4 2.5 266 -999
2009-02-13 09:04:57 51°13.706 2°55.747 80.1 2.3 268 9.5
2009-02-13 09:05:02 51°13.706 2°55.743 79.4 2 269 -999
2009-02-13 09:05:07 51°13.706 2°55.739 78.5 1.6 266 9.5
2009-02-13 09:05:11 51°13.706 2°55.737 76.8 1.3 271 9.5
2009-02-13 09:05:17 51°13.706 2°55.734 74.3 0.9 273 9.5
2009-02-13 09:05:21 51°13.706 2°55.733 71.5 0.6 291 9.6
2009-02-13 09:05:26 51°13.706 2°55.733 68.3 0.4 315 9.7
2009-02-13 09:05:31 51°13.707 2°55.733 64.7 0.5 350 9.6
2009-02-13 09:05:36 51°13.708 2°55.733 61 0.4 21 9.5
2009-02-13 09:05:41 51°13.709 2°55.734 56.9 0.9 23 9.5
2009-02-13 09:05:45 51°13.71 2°55.735 52.3 1.1 26 9.5
2009-02-13 09:05:50 51°13.712 2°55.736 47.5 1.3 22 9.5
2009-02-13 09:05:55 51°13.714 2°55.737 42.1 1.5 19 9.5
2009-02-13 09:06:00 51°13.716 2°55.737 36.4 1.7 14 9.4
2009-02-13 09:06:05 51°13.718 2°55.738 30.5 1.8 10 9.4
2009-02-13 09:06:10 51°13.721 2°55.739 24.7 1.9 6 9.4
2009-02-13 09:06:14 51°13.723 2°55.739 20.1 2.1 -999 9.3
2009-02-13 09:06:19 51°13.726 2°55.738 13.3 2.3 356 9.3
2009-02-13 09:06:25 51°13.731 2°55.737 7.5 2.5 350 9.3
2009-02-13 09:06:29 51°13.734 2°55.736 1.3 2.7 346 9.3
2009-02-13 09:06:34 51°13.737 2°55.734 354.8 2.8 341 9.3
2009-02-13 09:06:39 51°13.741 2°55.731 348.3 3 337 9.3
2009-02-13 09:06:43 51°13.745 2°55.729 343.3 3.3 333 8.9
2009-02-13 09:06:49 51°13.75 2°55.724 337.6 3.6 329 8.4
2009-02-13 09:06:54 51°13.755 2°55.719 332.8 4 328 8.2
2009-02-13 09:06:58 51°13.758 2°55.715 330.2 4.3 327 8.2
2009-02-13 09:07:04 51°13.765 2°55.708 328.6 4.6 325 8.2
2009-02-13 09:07:08 51°13.769 2°55.703 327.4 4.9 325 8.3
2009-02-13 09:07:14 51°13.776 2°55.695 327.2 5.2 325 8.2
2009-02-13 09:07:18 51°13.781 2°55.689 327 5.5 324 8.2
2009-02-13 09:07:24 51°13.788 2°55.681 327 5.7 325 8.2
2009-02-13 09:07:29 51°13.795 2°55.673 327.2 5.9 326 8.2
2009-02-13 09:07:33 51°13.801 2°55.667 327.3 6.2 326 8.2
2009-02-13 09:07:38 51°13.809 2°55.66 327.8 6.5 328 8.2
2009-02-13 09:07:44 51°13.818 2°55.651 328.7 6.8 330 8.2
2009-02-13 09:07:49 51°13.827 2°55.643 329.7 7.1 330 8.1
2009-02-13 09:07:53 51°13.834 2°55.636 330.5 7.3 331 8
2009-02-13 09:07:58 51°13.843 2°55.628 331.1 7.5 332 8
2009-02-13 09:08:03 51°13.853 2°55.62 331.6 7.7 333 8
2009-02-13 09:08:09 51°13.864 2°55.611 332.5 7.9 334 8
2009-02-13 09:08:13 51°13.872 2°55.605 334.7 8 335 8
2009-02-13 09:08:18 51°13.883 2°55.598 335.5 8.1 335 8
2009-02-13 09:08:24 51°13.895 2°55.588 335.6 8.2 335 8.1
2009-02-13 09:08:29 51°13.905 2°55.581 336 8.3 335 8
2009-02-13 09:08:33 51°13.914 2°55.574 336.1 8.4 334 8.1
2009-02-13 09:08:37 51°13.922 2°55.568 336.5 8.4 336 8.1
2009-02-13 09:08:44 51°13.937 2°55.556 336.2 8.5 334 8.1
2009-02-13 09:08:49 51°13.948 2°55.548 336 8.5 335 8.1
2009-02-13 09:08:53 51°13.957 2°55.542 336.2 8.6 335 8.1
2009-02-13 09:08:57 51°13.965 2°55.536 336.2 8.6 336 8.1
2009-02-13 09:09:03 51°13.978 2°55.526 336.1 8.6 335 8.1
2009-02-13 09:09:09 51°13.991 2°55.517 336 8.7 336 8.1
2009-02-13 09:09:13 51°14 2°55.511 336.7 8.6 337 8.1
2009-02-13 09:09:18 51°14.011 2°55.503 337.5 8.6 336 8
2009-02-13 09:09:23 51°14.022 2°55.495 337.2 8.7 336 8
2009-02-13 09:09:29 51°14.035 2°55.486 336.9 8.7 336 8
2009-02-13 09:09:33 51°14.044 2°55.48 337.1 8.7 335 8
2009-02-13 09:09:37 51°14.053 2°55.473 336.4 8.7 335 8.1
2009-02-13 09:09:43 51°14.066 2°55.463 336.1 8.8 334 8.1
2009-02-13 09:09:49 51°14.079 2°55.453 336.3 8.8 335 8.1
2009-02-13 09:09:53 51°14.088 2°55.446 335.9 8.8 333 8.1
2009-02-13 09:09:57 51°14.096 2°55.439 335.1 8.8 334 8.1
2009-02-13 09:10:03 51°14.11 2°55.428 335.1 8.8 334 8.1
2009-02-13 09:10:08 51°14.12 2°55.419 334.8 8.8 333 8
2009-02-13 09:10:13 51°14.131 2°55.41 334.7 8.8 332 8.1
2009-02-13 09:10:18 51°14.142 2°55.401 334.2 8.8 332 8.1
2009-02-13 09:10:23 51°14.153 2°55.392 333.2 8.8 330 8.1
2009-02-13 09:10:29 51°14.165 2°55.38 331.8 8.9 329 8.2
2009-02-13 09:10:33 51°14.174 2°55.371 330.1 9 327 8.1
2009-02-13 09:10:38 51°14.184 2°55.361 329.3 9 328 8.2
2009-02-13 09:10:44 51°14.196 2°55.347 328.4 9 325 8.2
2009-02-13 09:10:49 51°14.207 2°55.336 326.6 9 324 8.2
2009-02-13 09:10:53 51°14.214 2°55.326 324.8 9 321 8.2
2009-02-13 09:10:57 51°14.222 2°55.315 322.7 9 319 8.2
2009-02-13 09:11:04 51°14.235 2°55.297 320.4 9 317 8.2
2009-02-13 09:11:09 51°14.244 2°55.283 318.4 9.1 317 8.2
2009-02-13 09:11:13 51°14.252 2°55.272 318.3 9.1 317 8.2
2009-02-13 09:11:18 51°14.261 2°55.258 318 9.2 316 8.3
2009-02-13 09:11:23 51°14.27 2°55.244 317.2 9.2 315 8.2
2009-02-13 09:11:29 51°14.28 2°55.226 315.7 9.3 313 8.2
2009-02-13 09:11:33 51°14.287 2°55.214 314.4 9.3 313 8.2
2009-02-13 09:11:38 51°14.296 2°55.199 314.2 9.3 313 8.2
2009-02-13 09:11:43 51°14.305 2°55.184 313.8 9.4 312 8.6
2009-02-13 09:11:49 51°14.315 2°55.165 313.7 9.4 312 8.3
2009-02-13 09:11:53 51°14.322 2°55.153 313.3 9.4 312 8.2
2009-02-13 09:11:57 51°14.329 2°55.14 311.5 9.4 310 8.3
2009-02-13 09:12:03 51°14.339 2°55.121 310.2 9.4 310 8.3
2009-02-13 09:12:09 51°14.349 2°55.102 310.4 9.5 311 8.4
2009-02-13 09:12:13 51°14.356 2°55.089 311.2 9.6 311 8.7
2009-02-13 09:12:19 51°14.366 2°55.069 311 9.6 309 8.6
2009-02-13 09:12:23 51°14.373 2°55.056 310.6 9.6 308 8.5
2009-02-13 09:12:28 51°14.381 2°55.039 308.9 9.7 306 8.5
2009-02-13 09:12:33 51°14.389 2°55.022 307.1 9.7 305 8.6
2009-02-13 09:12:38 51°14.397 2°55.004 307.1 9.7 307 8.6
2009-02-13 09:12:43 51°14.405 2°54.988 309 9.8 310 8.6
2009-02-13 09:12:49 51°14.416 2°54.969 313.2 9.8 315 8.7
2009-02-13 09:12:53 51°14.424 2°54.957 317.6 9.8 316 8.9
2009-02-13 09:12:57 51°14.432 2°54.945 319.9 9.8 318 8.8
2009-02-13 09:13:04 51°14.447 2°54.925 321.7 9.9 318 8.9
2009-02-13 09:13:09 51°14.457 2°54.911 323.6 10 320 9.1
2009-02-13 09:13:13 51°14.466 2°54.9 325.7 10.1 322 8.9
2009-02-13 09:13:17 51°14.475 2°54.89 328.4 10.1 325 8.7
2009-02-13 09:13:23 51°14.489 2°54.875 331.1 10.1 328 8.5
2009-02-13 09:13:29 51°14.504 2°54.862 334.4 10.1 332 8.6
2009-02-13 09:13:33 51°14.514 2°54.855 338.3 10.1 336 8.5
2009-02-13 09:13:38 51°14.527 2°54.846 342.4 10.1 339 8.4
2009-02-13 09:13:43 51°14.54 2°54.839 345.9 10 342 8.3
2009-02-13 09:13:49 51°14.556 2°54.832 349 10.1 345 8.3
2009-02-13 09:13:53 51°14.567 2°54.828 351.4 10.1 347 8.1
2009-02-13 09:13:58 51°14.581 2°54.824 353.9 10 349 8.1
2009-02-13 09:14:03 51°14.595 2°54.819 355 10.1 347 8
2009-02-13 09:14:09 51°14.611 2°54.813 353.6 10.2 346 8
2009-02-13 09:14:13 51°14.622 2°54.808 352.8 10.2 345 8.1
2009-02-13 09:14:17 51°14.633 2°54.803 352 10.2 345 8
2009-02-13 09:14:23 51°14.649 2°54.796 351.3 10.3 344 7.8
2009-02-13 09:14:28 51°14.663 2°54.79 350.9 10.4 344 7.9
2009-02-13 09:14:33 51°14.677 2°54.783 350.6 10.4 344 8.1
2009-02-13 09:14:38 51°14.691 2°54.776 350.5 10.5 343 7.9
2009-02-13 09:14:43 51°14.705 2°54.77 350 10.5 343 7.9
2009-02-13 09:14:49 51°14.721 2°54.762 350 10.5 343 7.8
2009-02-13 09:14:53 51°14.733 2°54.756 350.4 10.5 343 7.8
2009-02-13 09:14:58 51°14.747 2°54.75 350.7 10.5 343 7.9
2009-02-13 09:15:03 51°14.76 2°54.743 350.6 10.6 343 7.8
2009-02-13 09:15:09 51°14.777 2°54.734 349.6 10.6 342 7.9
2009-02-13 09:15:13 51°14.788 2°54.729 349.1 10.7 342 8
2009-02-13 09:15:17 51°14.8 2°54.723 348.5 10.7 342 7.9
2009-02-13 09:15:24 51°14.82 2°54.713 348.6 10.7 343 7.8
2009-02-13 09:15:28 51°14.831 2°54.707 349 10.7 343 7.7
2009-02-13 09:15:33 51°14.845 2°54.7 349.1 10.7 342 7.6
2009-02-13 09:15:38 51°14.859 2°54.693 348.9 10.7 342 7.6
2009-02-13 09:15:44 51°14.876 2°54.684 348.4 10.7 341 8
2009-02-13 09:15:49 51°14.89 2°54.676 347.7 10.8 342 7.6
2009-02-13 09:15:53 51°14.902 2°54.671 348.5 10.8 343 7.3
2009-02-13 09:15:58 51°14.916 2°54.664 349.5 10.7 344 7.6
2009-02-13 09:16:04 51°14.933 2°54.655 349.2 10.7 342 7.1
2009-02-13 09:16:09 51°14.947 2°54.648 348.6 10.7 342 7.3
2009-02-13 09:16:13 51°14.958 2°54.642 348.4 10.7 341 5.4
2009-02-13 09:16:18 51°14.972 2°54.635 348 10.7 342 7.1
2009-02-13 09:16:23 51°14.986 2°54.628 348.2 10.7 343 6.9
2009-02-13 09:16:29 51°15.003 2°54.62 349.1 10.6 343 6.9
2009-02-13 09:16:33 51°15.014 2°54.614 349.1 10.5 342 6.6
2009-02-13 09:16:38 51°15.028 2°54.607 348.8 10.5 343 6.6
2009-02-13 09:16:43 51°15.042 2°54.6 348.7 10.5 342 6.5
2009-02-13 09:16:49 51°15.059 2°54.592 348.5 10.5 343 6.4
2009-02-13 09:16:53 51°15.07 2°54.587 348.4 10.5 344 6.4
2009-02-13 09:16:58 51°15.084 2°54.58 349.2 10.5 344 6.4
2009-02-13 09:17:03 51°15.098 2°54.573 349.7 10.5 343 6.4
2009-02-13 09:17:09 51°15.114 2°54.565 349.5 10.5 343 6.6
2009-02-13 09:17:13 51°15.126 2°54.56 349.2 10.6 343 6.6
2009-02-13 09:17:18 51°15.139 2°54.553 349 10.5 343 6.5
2009-02-13 09:17:23 51°15.153 2°54.546 348.9 10.5 343 6.6
2009-02-13 09:17:29 51°15.17 2°54.537 348.8 10.6 342 6.6
2009-02-13 09:17:33 51°15.182 2°54.532 348.8 10.6 343 6.8
2009-02-13 09:17:38 51°15.196 2°54.525 348.9 10.7 343 6.7
2009-02-13 09:17:44 51°15.213 2°54.516 348.9 10.6 343 6.9
2009-02-13 09:17:49 51°15.227 2°54.509 348.8 10.6 343 6.9
2009-02-13 09:17:53 51°15.238 2°54.504 349.2 10.7 344 6.9
2009-02-13 09:17:57 51°15.249 2°54.499 350.3 10.7 345 7
2009-02-13 09:18:04 51°15.27 2°54.49 350.7 10.8 345 7
2009-02-13 09:18:09 51°15.284 2°54.484 351 10.7 345 7.2
2009-02-13 09:18:13 51°15.296 2°54.479 351.1 10.7 345 7.1
2009-02-13 09:18:17 51°15.307 2°54.474 351.4 10.6 345 7.2
2009-02-13 09:18:23 51°15.324 2°54.468 352.6 10.7 347 7.3
2009-02-13 09:18:29 51°15.341 2°54.462 353.8 10.7 348 5.5
2009-02-13 09:18:34 51°15.356 2°54.458 355 10.6 350 7.3
2009-02-13 09:18:38 51°15.367 2°54.456 357.8 10.6 353 5.5
2009-02-13 09:18:44 51°15.385 2°54.453 359.3 10.5 353 7.5
2009-02-13 09:18:49 51°15.399 2°54.451 0.6 10.4 356 7.4
2009-02-13 09:18:54 51°15.414 2°54.45 2.5 10.4 357 7.5
2009-02-13 09:18:58 51°15.425 2°54.449 3.9 10.4 358 7.6
2009-02-13 09:19:03 51°15.44 2°54.449 5.1 10.5 359 7.7
2009-02-13 09:19:09 51°15.457 2°54.449 6.1 10.5 1 7.7
2009-02-13 09:19:13 51°15.469 2°54.449 6.8 10.4 -999 7.6
2009-02-13 09:19:18 51°15.483 2°54.45 8 10.4 3 7.7
2009-02-13 09:19:23 51°15.497 2°54.45 8.6 10.4 1 7.7
2009-02-13 09:19:29 51°15.515 2°54.451 8.3 10.4 1 7.9
2009-02-13 09:19:33 51°15.526 2°54.451 8 10.4 1 7.9
2009-02-13 09:19:37 51°15.538 2°54.451 7.3 10.5 1 8.1
2009-02-13 09:19:44 51°15.558 2°54.452 7.9 10.5 1 8
2009-02-13 09:19:49 51°15.573 2°54.452 7.8 10.5 -999 8
2009-02-13 09:19:53 51°15.584 2°54.452 7.3 10.4 -999 8.1
2009-02-13 09:19:57 51°15.596 2°54.452 7.4 10.4 -999 8
2009-02-13 09:20:04 51°15.616 2°54.452 7.7 10.4 -999 8.3
2009-02-13 09:20:09 51°15.63 2°54.452 7.3 10.4 -999 8.2
2009-02-13 09:20:13 51°15.642 2°54.452 7.3 10.4 359 8.3
2009-02-13 09:20:18 51°15.656 2°54.451 7.1 10.4 358 8.3
2009-02-13 09:20:23 51°15.671 2°54.45 6.6 10.2 358 8.3
2009-02-13 09:20:29 51°15.687 2°54.45 6.9 10 359 8.4
2009-02-13 09:20:33 51°15.698 2°54.45 7.6 9.8 -999 8.5
2009-02-13 09:20:37 51°15.709 2°54.45 8.5 9.6 -999 8.5
2009-02-13 09:20:43 51°15.724 2°54.45 8.9 9.2 -999 8.5
2009-02-13 09:20:49 51°15.739 2°54.45 9.5 8.9 1 8.6
2009-02-13 09:20:53 51°15.749 2°54.45 9.8 8.7 -999 8.8
2009-02-13 09:20:57 51°15.758 2°54.45 10.2 8.4 -999 8.7
2009-02-13 09:21:03 51°15.772 2°54.45 10.4 8.1 -999 8.7
2009-02-13 09:21:08 51°15.783 2°54.45 10.3 7.9 -999 8.7
2009-02-13 09:21:13 51°15.793 2°54.45 10.2 7.7 359 8.8
2009-02-13 09:21:18 51°15.804 2°54.45 10 7.5 359 8.9
2009-02-13 09:21:23 51°15.814 2°54.449 9.7 7.4 358 9
2009-02-13 09:21:29 51°15.826 2°54.449 10 7.2 1 9
2009-02-13 09:21:33 51°15.834 2°54.449 11.6 7.1 2 9.1
2009-02-13 09:21:38 51°15.844 2°54.45 12.8 6.9 3 9.1
2009-02-13 09:21:43 51°15.853 2°54.451 14.4 6.8 4 9.2
2009-02-13 09:21:49 51°15.864 2°54.453 16.1 6.7 6 9.2
2009-02-13 09:21:53 51°15.871 2°54.454 16.9 6.6 6 9.2
2009-02-13 09:21:59 51°15.882 2°54.456 18.3 6.6 7 9.3
2009-02-13 09:22:04 51°15.891 2°54.459 19.1 6.5 9 9.4
2009-02-13 09:22:08 51°15.898 2°54.46 19.9 6.5 9 9.2
2009-02-13 09:22:13 51°15.907 2°54.462 20.7 6.3 10 9
2009-02-13 09:22:18 51°15.916 2°54.465 21.1 6.4 9 9.2
2009-02-13 09:22:24 51°15.926 2°54.468 21.9 6.3 11 9.2
2009-02-13 09:22:29 51°15.935 2°54.471 22.3 6.3 10 9.2
2009-02-13 09:22:33 51°15.942 2°54.473 22.4 6.3 10 9.2
2009-02-13 09:22:38 51°15.95 2°54.475 22.3 6.3 10 9.3
2009-02-13 09:22:43 51°15.959 2°54.478 22.2 6.3 11 9.4
2009-02-13 09:22:49 51°15.969 2°54.481 22.3 6.3 11 9.4
2009-02-13 09:22:53 51°15.976 2°54.483 22.3 6.3 10 9.6
2009-02-13 09:22:57 51°15.983 2°54.485 22.5 6.2 12 9.3
2009-02-13 09:23:03 51°15.993 2°54.488 22.4 6.3 9 9.4
2009-02-13 09:23:09 51°16.003 2°54.492 22.2 6.2 12 9.5
2009-02-13 09:23:13 51°16.01 2°54.493 22.1 6.2 10 9.4
2009-02-13 09:23:17 51°16.017 2°54.495 21.9 6.2 11 9.4
2009-02-13 09:23:23 51°16.027 2°54.498 21.9 6.3 9 9.4
2009-02-13 09:23:28 51°16.036 2°54.5 21.9 6.2 11 9.4
2009-02-13 09:23:33 51°16.044 2°54.503 21.7 6.3 9 9.4
2009-02-13 09:23:38 51°16.053 2°54.505 21.7 6.3 10 9.4
2009-02-13 09:23:43 51°16.061 2°54.508 21.9 6.3 10 9.4
2009-02-13 09:23:49 51°16.072 2°54.51 22 6.5 10 9.4
2009-02-13 09:23:53 51°16.079 2°54.513 21.7 6.5 10 9.6
2009-02-13 09:23:57 51°16.086 2°54.514 21.6 6.5 10 9.6
2009-02-13 09:24:04 51°16.098 2°54.518 21.3 6.5 9 9.4
2009-02-13 09:24:09 51°16.107 2°54.521 21.2 6.5 10 9.5
2009-02-13 09:24:13 51°16.114 2°54.522 21.1 6.5 9 9.5
2009-02-13 09:24:17 51°16.121 2°54.524 21.1 6.5 10 9.5
2009-02-13 09:24:24 51°16.134 2°54.528 21.5 6.5 11 9.7
2009-02-13 09:24:29 51°16.143 2°54.531 21.5 6.6 11 9.7
2009-02-13 09:24:33 51°16.15 2°54.533 21.7 6.6 10 9.6
2009-02-13 09:24:38 51°16.159 2°54.535 21.7 6.6 11 9.6
2009-02-13 09:24:44 51°16.17 2°54.539 21.4 6.6 11 9.7
2009-02-13 09:24:49 51°16.179 2°54.541 21.2 6.7 9 9.7
2009-02-13 09:24:53 51°16.186 2°54.543 21.1 6.7 11 9.8
2009-02-13 09:24:58 51°16.195 2°54.546 21.1 6.7 10 9.6
2009-02-13 09:25:03 51°16.204 2°54.549 21 6.7 12 9.6
2009-02-13 09:25:09 51°16.215 2°54.552 20.9 6.7 10 9.6
2009-02-13 09:25:13 51°16.222 2°54.554 20.7 6.7 11 9.6
2009-02-13 09:25:17 51°16.229 2°54.556 20.9 6.5 10 9.6
2009-02-13 09:25:23 51°16.24 2°54.559 21 6.2 10 9.6
2009-02-13 09:25:29 51°16.25 2°54.561 21 5.9 9 9.7
2009-02-13 09:25:33 51°16.256 2°54.563 20.8 5.6 8 9.6
2009-02-13 09:25:38 51°16.263 2°54.564 20.4 5.2 4 9.6
2009-02-13 09:25:43 51°16.27 2°54.564 17.5 4.9 358 9.6
2009-02-13 09:25:49 51°16.278 2°54.562 13.7 4.7 352 9.5
2009-02-13 09:25:53 51°16.283 2°54.56 6.6 4.6 345 9.6
2009-02-13 09:25:58 51°16.289 2°54.557 0.7 4.5 337 9.6
2009-02-13 09:26:03 51°16.294 2°54.552 354.9 4.3 331 9.6
2009-02-13 09:26:09 51°16.3 2°54.546 348.9 4.3 324 9.6
2009-02-13 09:26:13 51°16.303 2°54.541 344.3 4.3 319 9.7
2009-02-13 09:26:17 51°16.307 2°54.536 337.3 4.2 313 9.7
2009-02-13 09:26:24 51°16.312 2°54.525 331.4 4.3 307 9.7
2009-02-13 09:26:29 51°16.315 2°54.517 325.4 4.2 302 9.8
2009-02-13 09:26:33 51°16.317 2°54.511 321.2 4.2 296 9.8
2009-02-13 09:26:37 51°16.319 2°54.504 315.1 4.4 292 9.8
2009-02-13 09:26:44 51°16.321 2°54.49 307.8 4.5 286 9.7
2009-02-13 09:26:49 51°16.323 2°54.48 301.2 4.9 282 9.7
2009-02-13 09:26:53 51°16.323 2°54.471 295.6 5 276 9.7
2009-02-13 09:26:58 51°16.323 2°54.46 287.3 5.1 267 9.7
2009-02-13 09:27:04 51°16.323 2°54.446 278.6 5.1 266 9.7
2009-02-13 09:27:09 51°16.321 2°54.435 271.6 5.1 260 9.7
2009-02-13 09:27:13 51°16.32 2°54.427 264.8 5.1 256 9.7
2009-02-13 09:27:17 51°16.318 2°54.418 259.8 5 250 9.7
2009-02-13 09:27:23 51°16.315 2°54.406 252.5 5 247 9.6
2009-02-13 09:27:29 51°16.311 2°54.394 246.4 5 242 9.7
2009-02-13 09:27:33 51°16.308 2°54.387 240.6 4.9 238 9.8
2009-02-13 09:27:37 51°16.305 2°54.38 235 4.9 236 9.7
2009-02-13 09:27:43 51°16.3 2°54.369 230.7 4.8 230 9.7
2009-02-13 09:27:48 51°16.296 2°54.361 226.3 4.7 232 9.7
2009-02-13 09:27:53 51°16.292 2°54.354 223.4 4.5 229 9.7
2009-02-13 09:27:58 51°16.288 2°54.346 222.8 4.2 229 9.7
2009-02-13 09:28:03 51°16.284 2°54.34 221.5 3.9 232 9.7
2009-02-13 09:28:09 51°16.281 2°54.333 221.4 3.4 229 9.8
2009-02-13 09:28:13 51°16.279 2°54.328 222.1 3 233 9.7
2009-02-13 09:28:17 51°16.277 2°54.324 224.6 2.5 233 9.6
2009-02-13 09:28:23 51°16.275 2°54.32 226.3 2.1 238 9.7
2009-02-13 09:28:29 51°16.273 2°54.316 228.6 1.7 232 9.7
2009-02-13 09:28:33 51°16.273 2°54.314 230.1 1.4 244 9.7
2009-02-13 09:28:37 51°16.272 2°54.312 231 1.4 235 9.8
2009-02-13 09:28:44 51°16.27 2°54.308 231.6 1.4 239 9.8
2009-02-13 09:28:48 51°16.27 2°54.306 232.2 1.4 244 9.8
2009-02-13 09:28:53 51°16.269 2°54.304 232.8 1.3 238 9.7
2009-02-13 09:28:58 51°16.268 2°54.301 233.4 1.3 238 9.6
2009-02-13 09:29:04 51°16.267 2°54.298 233.4 1.3 243 9.7
2009-02-13 09:29:09 51°16.266 2°54.296 234.4 1.1 236 9.7
2009-02-13 09:29:13 51°16.266 2°54.294 235 1.2 252 9.7
2009-02-13 09:29:18 51°16.265 2°54.293 235.7 1.1 231 9.8
2009-02-13 09:29:23 51°16.264 2°54.29 236.5 1.1 251 9.8
2009-02-13 09:29:29 51°16.263 2°54.288 237.2 1 236 9.8
2009-02-13 09:29:33 51°16.263 2°54.286 238 1.1 240 4.5
2009-02-13 09:29:38 51°16.262 2°54.284 238.2 1.1 238 4.7
2009-02-13 09:29:43 51°16.262 2°54.282 238.5 1.1 244 9.8
2009-02-13 09:29:49 51°16.26 2°54.28 239.1 1.1 232 9.7
2009-02-13 09:29:53 51°16.26 2°54.278 239.4 1.1 246 9.7
2009-02-13 09:29:58 51°16.259 2°54.276 239.6 1.1 233 9.8
2009-02-13 09:30:03 51°16.259 2°54.274 239.9 1.1 241 9.7
2009-02-13 09:30:09 51°16.258 2°54.272 240.1 1 244 9.7
2009-02-13 09:30:13 51°16.257 2°54.27 240.3 1.1 238 9.8
2009-02-13 09:30:17 51°16.257 2°54.269 240.6 1 241 9.7
2009-02-13 09:30:23 51°16.256 2°54.266 240.9 1 239 9.7
2009-02-13 09:30:28 51°16.255 2°54.264 241.1 1.1 246 9.7
2009-02-13 09:30:33 51°16.254 2°54.262 241.6 1.1 239 9.8
2009-02-13 09:30:38 51°16.254 2°54.26 241.9 1 248 9.8
2009-02-13 09:30:43 51°16.253 2°54.258 242.3 1 243 9.7
2009-02-13 09:30:49 51°16.252 2°54.256 242.5 1 239 9.7
2009-02-13 09:30:53 51°16.252 2°54.254 243.2 1 248 9.7
2009-02-13 09:30:58 51°16.251 2°54.252 244.1 1 247 9.7
2009-02-13 09:31:04 51°16.25 2°54.249 244.4 1.1 254 9.7
2009-02-13 09:31:09 51°16.25 2°54.247 245.4 1.1 239 9.7
2009-02-13 09:31:13 51°16.249 2°54.246 246.1 1.1 256 9.8
2009-02-13 09:31:17 51°16.249 2°54.244 247.1 1 242 9.8
2009-02-13 09:31:24 51°16.248 2°54.241 248.2 1.1 249 9.7
2009-02-13 09:31:29 51°16.247 2°54.239 249.3 1 248 9.8
2009-02-13 09:31:33 51°16.247 2°54.237 250.4 1.1 245 9.8
2009-02-13 09:31:37 51°16.247 2°54.235 251.6 1.1 241 9.8
2009-02-13 09:31:43 51°16.246 2°54.233 253 1 256 9.7
2009-02-13 09:31:49 51°16.245 2°54.231 254.1 1.1 240 9.8
2009-02-13 09:31:53 51°16.245 2°54.229 255.2 1 259 9.8
2009-02-13 09:31:58 51°16.244 2°54.227 256.6 1.1 236 9.8
2009-02-13 09:32:03 51°16.244 2°54.225 257.6 1 250 9.7
2009-02-13 09:32:09 51°16.243 2°54.222 259 1 245 9.7
2009-02-13 09:32:13 51°16.242 2°54.221 260.4 1 245 9.7
2009-02-13 09:32:17 51°16.242 2°54.219 261.4 1 244 9.7
2009-02-13 09:32:23 51°16.241 2°54.216 262 1 248 9.7
2009-02-13 09:32:29 51°16.24 2°54.214 263.1 1 241 9.8
2009-02-13 09:32:33 51°16.24 2°54.213 264.3 1 245 9.8
2009-02-13 09:32:37 51°16.239 2°54.211 265.4 1 245 9.8
2009-02-13 09:32:43 51°16.239 2°54.208 266.2 1 245 9.8
2009-02-13 09:32:48 51°16.238 2°54.206 267.2 1 245 9.8
2009-02-13 09:32:53 51°16.238 2°54.204 268.3 1 243 9.8
2009-02-13 09:32:58 51°16.237 2°54.202 269.3 1 243 9.8
2009-02-13 09:33:03 51°16.237 2°54.2 270.3 1.1 244 9.7
2009-02-13 09:33:09 51°16.236 2°54.198 271.4 1 245 9.7
2009-02-13 09:33:13 51°16.235 2°54.196 272.3 0.9 249 9.7
2009-02-13 09:33:18 51°16.234 2°54.194 273.2 1.1 239 9.7
2009-02-13 09:33:24 51°16.234 2°54.192 274.1 1.1 240 9.8
2009-02-13 09:33:29 51°16.233 2°54.19 275.3 1 242 9.8
2009-02-13 09:33:33 51°16.232 2°54.188 276.4 1.1 238 9.9
2009-02-13 09:33:37 51°16.232 2°54.186 277.3 1 242 9.8
2009-02-13 09:33:44 51°16.231 2°54.183 278.3 1 242 9.8
2009-02-13 09:33:49 51°16.23 2°54.181 278.9 1.1 240 9.8
2009-02-13 09:33:53 51°16.23 2°54.179 279.8 1.1 243 9.8
2009-02-13 09:33:57 51°16.229 2°54.178 280.6 1.1 239 9.8
2009-02-13 09:34:03 51°16.228 2°54.175 281.6 1.1 239 9.8
2009-02-13 09:34:09 51°16.228 2°54.173 282.5 1 247 9.7
2009-02-13 09:34:13 51°16.227 2°54.171 283.2 1.2 238 9.8
2009-02-13 09:34:18 51°16.226 2°54.169 283.8 1.1 241 9.8
2009-02-13 09:34:23 51°16.225 2°54.167 284.5 1.1 241 9.8
2009-02-13 09:34:29 51°16.224 2°54.164 285.2 1.1 240 9.8
2009-02-13 09:34:33 51°16.224 2°54.163 285.7 1.1 240 9.8
2009-02-13 09:34:37 51°16.223 2°54.161 286.3 1.1 240 9.8
2009-02-13 09:34:43 51°16.222 2°54.159 287.2 1.1 240 9.8
2009-02-13 09:34:49 51°16.221 2°54.156 287.6 1.1 242 9.8
2009-02-13 09:34:53 51°16.221 2°54.154 288.2 1.2 240 9.9
2009-02-13 09:34:57 51°16.22 2°54.153 288.9 1.1 239 9.9
2009-02-13 09:35:04 51°16.219 2°54.15 289.6 1 241 9.8
2009-02-13 09:35:08 51°16.218 2°54.148 290.5 1.1 240 9.8
2009-02-13 09:35:13 51°16.218 2°54.146 290.7 1.1 239 9.8
2009-02-13 09:35:18 51°16.217 2°54.144 291.5 1 242 9.8
2009-02-13 09:35:23 51°16.216 2°54.141 292.1 1.2 240 9.8
2009-02-13 09:35:29 51°16.215 2°54.139 292.6 1.1 243 9.9
2009-02-13 09:35:33 51°16.215 2°54.137 293.3 1.2 239 9.9
2009-02-13 09:35:38 51°16.214 2°54.135 294 1.1 243 9.8
2009-02-13 09:35:44 51°16.213 2°54.132 294.7 1.2 239 9.8
2009-02-13 09:35:49 51°16.212 2°54.131 295.2 1.1 239 9.8
2009-02-13 09:35:53 51°16.211 2°54.129 295.8 1 238 9.8
2009-02-13 09:35:57 51°16.211 2°54.127 296.5 1.1 241 9.8
2009-02-13 09:36:04 51°16.21 2°54.124 296.5 1.3 240 9.9
2009-02-13 09:36:09 51°16.209 2°54.122 297.6 1.2 242 9.9
2009-02-13 09:36:13 51°16.209 2°54.12 298.1 1.1 239 9.8
2009-02-13 09:36:18 51°16.208 2°54.118 298.9 1.1 242 9.9
2009-02-13 09:36:23 51°16.207 2°54.116 299.3 1.1 240 9.8
2009-02-13 09:36:29 51°16.206 2°54.113 300.1 1.1 242 9.8
2009-02-13 09:36:33 51°16.205 2°54.111 300.6 1.2 240 9.8
2009-02-13 09:36:38 51°16.204 2°54.109 301.3 1.1 240 9.9
2009-02-13 09:36:43 51°16.204 2°54.107 302.1 1.1 242 9.9
2009-02-13 09:36:49 51°16.203 2°54.104 302.4 1.1 242 9.9
2009-02-13 09:36:53 51°16.202 2°54.102 303 1.2 240 9.9
2009-02-13 09:36:57 51°16.201 2°54.101 303.5 1.1 240 9.8
2009-02-13 09:37:03 51°16.2 2°54.098 304.2 1.1 235 9.9
2009-02-13 09:37:09 51°16.199 2°54.096 304.9 1.1 225 9.9
2009-02-13 09:37:14 51°16.198 2°54.095 305.9 1 215 9.9
2009-02-13 09:37:17 51°16.197 2°54.094 306.6 1.2 204 10
2009-02-13 09:37:24 51°16.195 2°54.093 307.6 1.1 192 9.9
2009-02-13 09:37:28 51°16.193 2°54.093 308.8 1.3 185 9.9
2009-02-13 09:37:33 51°16.191 2°54.093 309.5 1.5 179 9.9
2009-02-13 09:37:38 51°16.189 2°54.093 310.7 1.6 171 9.9
2009-02-13 09:37:44 51°16.186 2°54.094 311.8 2 173 -999
2009-02-13 09:37:50 51°16.183 2°54.096 312.7 2 163 -999
2009-02-13 09:37:55 51°16.18 2°54.097 314.4 2.2 163 -999
2009-02-13 09:38:01 51°16.176 2°54.098 315.3 2.4 166 -999
2009-02-13 09:38:07 51°16.172 2°54.1 316.1 2.5 163 -999
2009-02-13 09:38:12 51°16.169 2°54.101 316.9 2.5 170 -999
2009-02-13 09:38:17 51°16.166 2°54.102 318 2.2 166 -999
2009-02-13 09:38:22 51°16.162 2°54.103 318.7 2.2 175 -999
2009-02-13 09:38:28 51°16.159 2°54.103 319.4 2 174 -999
2009-02-13 09:38:32 51°16.157 2°54.104 320.6 1.9 180 -999
2009-02-13 09:38:37 51°16.155 2°54.103 321.9 1.8 186 -999
2009-02-13 09:38:42 51°16.153 2°54.102 323.3 1.5 193 10
2009-02-13 09:38:47 51°16.151 2°54.101 324.5 1.5 210 10
2009-02-13 09:38:52 51°16.15 2°54.099 326.7 1.2 225 10
2009-02-13 09:38:57 51°16.149 2°54.096 329.6 1 257 10
2009-02-13 09:39:01 51°16.149 2°54.094 333.7 1.3 274 10
2009-02-13 09:39:06 51°16.15 2°54.092 339.1 1.4 294 10
2009-02-13 09:39:11 51°16.151 2°54.089 345.2 1.6 306 9.9
2009-02-13 09:39:16 51°16.152 2°54.086 351.8 1.7 318 10
2009-02-13 09:39:21 51°16.155 2°54.084 358.4 1.8 331 10
2009-02-13 09:39:26 51°16.157 2°54.083 4.7 1.8 339 10
2009-02-13 09:39:30 51°16.159 2°54.082 11.2 1.8 353 9.9
2009-02-13 09:39:35 51°16.162 2°54.082 17.9 1.9 2 9.9
2009-02-13 09:39:40 51°16.164 2°54.083 24.7 1.9 16 9.9
2009-02-13 09:39:45 51°16.167 2°54.084 31.2 2 23 9.7
2009-02-13 09:39:50 51°16.169 2°54.087 37.7 2 30 9.8
2009-02-13 09:39:55 51°16.171 2°54.09 44.5 2 43 9.7
2009-02-13 09:40:00 51°16.173 2°54.093 50.7 2.1 48 9.9
2009-02-13 09:40:05 51°16.175 2°54.098 56.7 2.2 59 9.8
2009-02-13 09:40:09 51°16.176 2°54.101 62.2 2.3 65 9.8
2009-02-13 09:40:14 51°16.177 2°54.106 66.7 2.4 69 9.9
2009-02-13 09:40:19 51°16.179 2°54.111 68.3 2.5 63 9.9
2009-02-13 09:40:24 51°16.18 2°54.116 68.3 2.4 64 10
2009-02-13 09:40:29 51°16.182 2°54.12 65.6 2.4 58 10
2009-02-13 09:40:33 51°16.184 2°54.124 60.6 2.5 51 10
2009-02-13 09:40:38 51°16.186 2°54.128 56 2.6 46 10
2009-02-13 09:40:44 51°16.189 2°54.133 51.5 2.6 39 10
2009-02-13 09:40:49 51°16.192 2°54.136 47.3 2.7 37 9.9
2009-02-13 09:40:53 51°16.195 2°54.139 42.9 2.8 27 9.9
2009-02-13 09:40:57 51°16.198 2°54.141 39.3 2.9 28 9.8
2009-02-13 09:41:03 51°16.203 2°54.144 36.4 3 23 9.7
2009-02-13 09:41:09 51°16.207 2°54.147 35.2 2.9 25 9.9
2009-02-13 09:41:13 51°16.21 2°54.15 37.5 2.8 31 9.8
2009-02-13 09:41:18 51°16.213 2°54.153 42.2 2.7 35 9.8
2009-02-13 09:41:23 51°16.215 2°54.157 47.3 2.6 45 9.9
2009-02-13 09:41:29 51°16.218 2°54.162 52.6 2.5 54 9.9
2009-02-13 09:41:33 51°16.22 2°54.166 58.2 2.4 60 9.8
2009-02-13 09:41:38 51°16.221 2°54.171 63.5 2.4 68 9.8
2009-02-13 09:41:43 51°16.222 2°54.176 68.2 2.5 69 9.8
2009-02-13 09:41:49 51°16.223 2°54.183 70.7 2.5 72 9.9
2009-02-13 09:41:54 51°16.224 2°54.188 72.4 2.6 75 9.8
2009-02-13 09:41:57 51°16.224 2°54.191 73.3 2.5 72 9.8
2009-02-13 09:42:04 51°16.226 2°54.199 72.1 2.5 75 9.7
2009-02-13 09:42:09 51°16.227 2°54.204 70.2 2.4 67 9.8
2009-02-13 09:42:13 51°16.228 2°54.207 67.5 2.4 72 9.9
2009-02-13 09:42:19 51°16.23 2°54.213 64.8 2.2 59 9.9
2009-02-13 09:42:24 51°16.231 2°54.217 62.3 2.2 65 9.8
2009-02-13 09:42:29 51°16.233 2°54.221 60.3 2.1 53 9.8
2009-02-13 09:42:33 51°16.234 2°54.224 58.9 2 58 9.8
2009-02-13 09:42:38 51°16.236 2°54.228 57.2 2 53 9.8
2009-02-13 09:42:44 51°16.238 2°54.232 56.7 2 52 9.8
2009-02-13 09:42:49 51°16.24 2°54.236 56 2 52 9.8
2009-02-13 09:42:53 51°16.241 2°54.239 55.9 2 55 9.8
2009-02-13 09:42:57 51°16.242 2°54.241 55.5 2 51 9.9
2009-02-13 09:43:03 51°16.244 2°54.245 55.5 1.9 54 9.8
2009-02-13 09:43:09 51°16.246 2°54.249 56.4 1.8 51 9.8
2009-02-13 09:43:13 51°16.247 2°54.252 57.5 1.7 63 9.8
2009-02-13 09:43:17 51°16.248 2°54.254 58.3 1.7 47 9.8
2009-02-13 09:43:23 51°16.249 2°54.258 58.9 1.6 64 9.8
2009-02-13 09:43:29 51°16.251 2°54.261 59.6 1.6 49 9.8
2009-02-13 09:43:33 51°16.251 2°54.263 60.1 1.5 68 9.8
2009-02-13 09:43:38 51°16.253 2°54.265 60.5 1.4 50 9.8
2009-02-13 09:43:43 51°16.254 2°54.268 61.4 1.4 69 9.8
2009-02-13 09:43:49 51°16.255 2°54.271 61.9 1.4 54 9.8
2009-02-13 09:43:53 51°16.255 2°54.273 62.6 1.3 77 9.9
2009-02-13 09:43:57 51°16.256 2°54.275 63.4 1.3 57 9.8
2009-02-13 09:44:03 51°16.257 2°54.279 64.5 1.2 74 9.8
2009-02-13 09:44:09 51°16.257 2°54.281 65.6 1.2 70 9.9
2009-02-13 09:44:13 51°16.258 2°54.283 66.1 1.2 76 9.7
2009-02-13 09:44:17 51°16.258 2°54.285 67.1 1.1 66 9.7
2009-02-13 09:44:24 51°16.258 2°54.288 67.5 1 81 9.7
2009-02-13 09:44:28 51°16.259 2°54.289 68.3 0.9 69 9.8
2009-02-13 09:44:33 51°16.259 2°54.291 68.4 0.9 87 9.8
2009-02-13 09:44:38 51°16.259 2°54.293 68.8 0.8 74 9.7
2009-02-13 09:44:44 51°16.259 2°54.295 69.1 0.8 78 9.8
2009-02-13 09:44:49 51°16.259 2°54.297 69.2 0.8 89 9.8
2009-02-13 09:44:53 51°16.26 2°54.298 69.4 0.7 72 9.8
2009-02-13 09:44:58 51°16.259 2°54.299 69.6 0.7 101 9.9
2009-02-13 09:45:04 51°16.26 2°54.301 69.7 0.6 82 9.8
2009-02-13 09:45:09 51°16.26 2°54.302 69.8 0.5 78 9.9
2009-02-13 09:45:13 51°16.259 2°54.303 69.8 0.5 107 9.9
2009-02-13 09:45:17 51°16.26 2°54.303 70 0.5 104 9.7
2009-02-13 09:45:24 51°16.259 2°54.305 70 0.4 93 9.7
2009-02-13 09:45:29 51°16.259 2°54.306 70 0.5 115 9.8
2009-02-13 09:45:33 51°16.259 2°54.306 70.2 0.4 100 9.8
2009-02-13 09:45:37 51°16.259 2°54.307 70.4 0.4 103 9.8
2009-02-13 09:45:43 51°16.258 2°54.308 70.3 0.4 119 9.9
2009-02-13 09:45:49 51°16.258 2°54.309 70.4 0.3 120 9.9
2009-02-13 09:45:53 51°16.258 2°54.309 70.5 0.2 118 9.9
2009-02-13 09:45:58 51°16.258 2°54.31 70.5 0.3 135 9.9
2009-02-13 09:46:03 51°16.257 2°54.31 70.6 0.2 123 9.9
2009-02-13 09:46:09 51°16.257 2°54.311 70.6 0.4 146 9.9
2009-02-13 09:46:13 51°16.257 2°54.311 70.6 0.1 113 9.9
2009-02-13 09:46:17 51°16.257 2°54.311 70.7 0.4 153 9.9
2009-02-13 09:46:23 51°16.256 2°54.311 70.8 0.1 161 9.9
2009-02-13 09:46:29 51°16.256 2°54.311 70.8 0.4 163 9.9
2009-02-13 09:46:34 51°16.256 2°54.311 70.9 0.2 189 9.9
2009-02-13 09:46:37 51°16.255 2°54.311 71.1 0.4 170 9.9
2009-02-13 09:46:44 51°16.255 2°54.311 71.1 0.2 224 9.9
2009-02-13 09:46:48 51°16.255 2°54.311 71.2 0.4 182 9.9
2009-02-13 09:46:53 51°16.254 2°54.311 71.5 0.2 225 9.8
2009-02-13 09:46:58 51°16.254 2°54.311 71.5 0.3 193 9.9
2009-02-13 09:47:04 51°16.253 2°54.31 71.5 0.3 215 9.9
2009-02-13 09:47:09 51°16.253 2°54.31 71.6 0.4 194 9.8
2009-02-13 09:47:13 51°16.253 2°54.309 72.1 0.3 229 9.8
2009-02-13 09:47:18 51°16.252 2°54.309 72.2 0.5 198 9.9
2009-02-13 09:47:24 51°16.252 2°54.308 72.2 0.3 231 9.8
2009-02-13 09:47:29 51°16.251 2°54.308 72.6 0.5 203 9.9
2009-02-13 09:47:33 51°16.251 2°54.308 72.7 0.5 207 9.8
2009-02-13 09:47:37 51°16.25 2°54.307 72.9 0.4 218 9.8
2009-02-13 09:47:44 51°16.25 2°54.306 73.1 0.4 226 9.8
2009-02-13 09:47:49 51°16.249 2°54.306 73.4 0.5 217 9.9
2009-02-13 09:47:53 51°16.249 2°54.305 73.8 0.5 218 10
2009-02-13 09:47:58 51°16.248 2°54.305 73.9 0.5 215 9.9
2009-02-13 09:48:03 51°16.248 2°54.304 74.4 0.5 224 9.9
2009-02-13 09:48:09 51°16.247 2°54.303 74.7 0.6 214 9.8
2009-02-13 09:48:13 51°16.247 2°54.302 75 0.5 233 9.8
2009-02-13 09:48:18 51°16.246 2°54.301 75.6 0.7 218 9.9
2009-02-13 09:48:23 51°16.245 2°54.3 75.8 0.6 223 9.9
2009-02-13 09:48:29 51°16.245 2°54.299 76.4 0.6 226 9.9
2009-02-13 09:48:33 51°16.244 2°54.298 77 0.6 222 9.8
2009-02-13 09:48:37 51°16.243 2°54.298 77.5 0.6 232 9.9
2009-02-13 09:48:44 51°16.243 2°54.296 77.7 0.7 211 9.9
2009-02-13 09:48:49 51°16.242 2°54.295 78.2 0.6 220 9.8
2009-02-13 09:48:53 51°16.241 2°54.294 78.8 0.7 224 9.9
2009-02-13 09:48:59 51°16.241 2°54.293 79.2 0.7 224 9.8
2009-02-13 09:49:04 51°16.24 2°54.292 79.8 0.7 225 9.9
2009-02-13 09:49:08 51°16.239 2°54.291 80.1 0.7 220 9.9
2009-02-13 09:49:13 51°16.239 2°54.29 80.7 0.7 230 9.9
2009-02-13 09:49:18 51°16.238 2°54.289 80.7 0.8 217 9.9
2009-02-13 09:49:24 51°16.237 2°54.288 81.2 0.7 230 9.9
2009-02-13 09:49:29 51°16.236 2°54.286 81.4 0.8 218 9.9
2009-02-13 09:49:33 51°16.236 2°54.285 81.7 0.7 232 9.9
2009-02-13 09:49:37 51°16.235 2°54.284 82.2 0.8 219 9.9
2009-02-13 09:49:44 51°16.234 2°54.283 82.5 0.7 228 9.9
2009-02-13 09:49:49 51°16.233 2°54.282 82.9 0.9 218 9.9
2009-02-13 09:49:53 51°16.232 2°54.281 83.6 0.8 227 9.9
2009-02-13 09:49:57 51°16.232 2°54.28 84.1 0.9 222 9.9
2009-02-13 09:50:03 51°16.231 2°54.278 84.6 0.8 231 9.9
2009-02-13 09:50:09 51°16.23 2°54.277 84.9 1 218 9.9
2009-02-13 09:50:13 51°16.229 2°54.276 85.4 0.8 233 9.9
2009-02-13 09:50:18 51°16.228 2°54.274 85.7 1 220 9.9
2009-02-13 09:50:23 51°16.228 2°54.273 86.3 0.8 232 9.9
2009-02-13 09:50:29 51°16.226 2°54.271 86.5 0.8 225 9.9
2009-02-13 09:50:33 51°16.226 2°54.27 87 0.8 236 9.9
2009-02-13 09:50:37 51°16.225 2°54.269 87.3 0.9 222 10
2009-02-13 09:50:43 51°16.224 2°54.267 87.8 0.9 231 9.8
2009-02-13 09:50:49 51°16.223 2°54.266 88.4 0.9 225 9.9
2009-02-13 09:50:54 51°16.222 2°54.264 88.6 0.9 228 9.9
2009-02-13 09:50:57 51°16.221 2°54.263 89.1 0.9 226 9.9
2009-02-13 09:51:04 51°16.221 2°54.261 89.4 0.9 229 9.9
2009-02-13 09:51:08 51°16.22 2°54.26 89.7 0.9 228 9.9
2009-02-13 09:51:13 51°16.219 2°54.258 90 0.9 224 9.9
2009-02-13 09:51:18 51°16.218 2°54.257 90.4 0.9 221 9.9
2009-02-13 09:51:23 51°16.217 2°54.256 90.8 0.8 232 9.9
2009-02-13 09:51:29 51°16.216 2°54.254 91 1 223 9.9
2009-02-13 09:51:33 51°16.215 2°54.252 91.3 0.9 235 9.9
2009-02-13 09:51:38 51°16.214 2°54.251 91.7 1 224 9.9
2009-02-13 09:51:44 51°16.214 2°54.249 91.8 0.9 231 9.9
2009-02-13 09:51:49 51°16.212 2°54.248 92.4 1 223 9.9
2009-02-13 09:51:53 51°16.212 2°54.246 92.8 0.9 231 9.9
2009-02-13 09:51:57 51°16.211 2°54.245 93 1.1 226 9.9
2009-02-13 09:52:04 51°16.21 2°54.243 93.4 0.9 228 9.9
2009-02-13 09:52:09 51°16.209 2°54.241 93.9 1 226 9.9
2009-02-13 09:52:13 51°16.208 2°54.24 94.2 1 229 10
2009-02-13 09:52:18 51°16.207 2°54.238 94.5 1.1 227 9.9
2009-02-13 09:52:24 51°16.206 2°54.237 94.9 0.9 231 9.9
2009-02-13 09:52:29 51°16.205 2°54.235 95.2 1 229 10
2009-02-13 09:52:34 51°16.204 2°54.233 95.4 1.2 223 9.9
2009-02-13 09:52:38 51°16.203 2°54.232 96.2 0.9 233 9.9
2009-02-13 09:52:44 51°16.202 2°54.23 96.5 1.2 219 9.9
2009-02-13 09:52:49 51°16.201 2°54.228 96.9 0.8 236 9.9
2009-02-13 09:52:53 51°16.2 2°54.227 97.3 1.2 224 9.9
2009-02-13 09:52:58 51°16.199 2°54.225 97.5 1 232 9.9
2009-02-13 09:53:04 51°16.198 2°54.223 97.9 1 227 9.9
2009-02-13 09:53:09 51°16.197 2°54.221 98.2 1 232 9.9
2009-02-13 09:53:13 51°16.196 2°54.22 98.3 1.2 225 9.9
2009-02-13 09:53:18 51°16.195 2°54.218 98.8 1 232 9.9
2009-02-13 09:53:23 51°16.194 2°54.216 99.3 1.1 226 9.9
2009-02-13 09:53:29 51°16.193 2°54.214 99.4 1.1 227 9.9
2009-02-13 09:53:33 51°16.192 2°54.213 99.8 1.1 225 9.9
2009-02-13 09:53:39 51°16.191 2°54.21 100.2 1 232 9.9
2009-02-13 09:53:44 51°16.19 2°54.209 100.5 1.3 223 9.9
2009-02-13 09:53:49 51°16.189 2°54.207 101.1 1 236 9.9
2009-02-13 09:53:53 51°16.188 2°54.205 101.7 1.2 226 9.9
2009-02-13 09:53:57 51°16.187 2°54.204 101.7 1.1 229 9.9
2009-02-13 09:54:04 51°16.186 2°54.201 102.3 1.2 225 9.9
2009-02-13 09:54:09 51°16.185 2°54.199 102.7 1.1 229 9.9
2009-02-13 09:54:13 51°16.184 2°54.198 103.1 1.1 231 9.9
2009-02-13 09:54:18 51°16.183 2°54.196 103.3 1.3 225 9.9
2009-02-13 09:54:24 51°16.182 2°54.194 103.8 1.1 233 9.9
2009-02-13 09:54:29 51°16.18 2°54.192 104.2 1.2 229 10
2009-02-13 09:54:33 51°16.18 2°54.19 104.4 1 233 10
2009-02-13 09:54:38 51°16.179 2°54.188 105.1 1.2 226 10
2009-02-13 09:54:43 51°16.178 2°54.187 105.1 1.1 228 10
2009-02-13 09:54:49 51°16.176 2°54.184 105.7 1.1 230 10.1
2009-02-13 09:54:53 51°16.176 2°54.183 105.6 1.1 229 10.1
2009-02-13 09:54:57 51°16.175 2°54.181 106 1.1 230 10
2009-02-13 09:55:03 51°16.173 2°54.179 106.2 1.1 230 10
2009-02-13 09:55:09 51°16.172 2°54.177 106.6 1.1 233 10.1
2009-02-13 09:55:14 51°16.171 2°54.174 106.6 1.2 230 10
2009-02-13 09:55:19 51°16.17 2°54.173 107 1.1 231 10
2009-02-13 09:55:24 51°16.169 2°54.171 107.2 1.2 231 10
2009-02-13 09:55:28 51°16.168 2°54.169 107.5 1.2 230 10
2009-02-13 09:55:33 51°16.167 2°54.167 107.6 1.1 232 10.1
2009-02-13 09:55:39 51°16.166 2°54.165 108.2 1.2 229 10.1
2009-02-13 09:55:43 51°16.165 2°54.163 108 1.2 230 10
2009-02-13 09:55:49 51°16.164 2°54.161 108.6 1.2 229 9.9
2009-02-13 09:55:53 51°16.163 2°54.159 108.7 1.2 230 10
2009-02-13 09:55:59 51°16.162 2°54.157 109 1.1 231 9.9
2009-02-13 09:56:04 51°16.161 2°54.155 109.3 1.2 229 9.9
2009-02-13 09:56:09 51°16.159 2°54.153 109.4 1.2 231 9.9
2009-02-13 09:56:13 51°16.159 2°54.151 109.7 1.1 227 10.1
2009-02-13 09:56:19 51°16.157 2°54.149 110 1.1 224 10.1
2009-02-13 09:56:24 51°16.156 2°54.148 110 1 220 10.1
2009-02-13 09:56:29 51°16.155 2°54.147 109 1 206 10.1
2009-02-13 09:56:33 51°16.154 2°54.146 106.8 0.9 195 10.1
2009-02-13 09:56:38 51°16.152 2°54.146 104.4 0.9 180 10.1
2009-02-13 09:56:44 51°16.151 2°54.147 100.2 0.9 170 10
2009-02-13 09:56:49 51°16.15 2°54.147 96 0.8 157 9.9
2009-02-13 09:56:53 51°16.15 2°54.148 91.2 0.7 147 9.8
2009-02-13 09:56:58 51°16.149 2°54.149 86.7 0.6 133 9.9
2009-02-13 09:57:03 51°16.149 2°54.15 81.8 0.7 129 9.9
2009-02-13 09:57:09 51°16.148 2°54.152 77.1 0.5 99 10.1
2009-02-13 09:57:13 51°16.148 2°54.153 72.1 0.7 104 10.1
2009-02-13 09:57:17 51°16.148 2°54.154 67.4 0.6 75 10
2009-02-13 09:57:23 51°16.149 2°54.156 62.4 0.8 78 10
2009-02-13 09:57:29 51°16.149 2°54.158 58.9 0.9 52 10
2009-02-13 09:57:34 51°16.15 2°54.16 56.4 1 59 10
2009-02-13 09:57:39 51°16.151 2°54.162 54.5 1.2 55 10
2009-02-13 09:57:44 51°16.152 2°54.164 53.3 1.3 50 10
2009-02-13 09:57:48 51°16.153 2°54.166 52.9 1.4 50 10
2009-02-13 09:57:53 51°16.155 2°54.169 53.8 1.5 49 10
2009-02-13 09:57:59 51°16.156 2°54.172 55 1.7 51 10
2009-02-13 09:58:04 51°16.158 2°54.175 55.6 1.9 52 10
2009-02-13 09:58:09 51°16.16 2°54.179 55.2 2.2 49 10.1
2009-02-13 09:58:13 51°16.161 2°54.182 54.3 2.4 50 10.2
2009-02-13 09:58:19 51°16.165 2°54.187 52.3 2.6 46 10.1
2009-02-13 09:58:24 51°16.168 2°54.191 49.9 2.9 43 10.1
2009-02-13 09:58:29 51°16.171 2°54.195 48.1 3 37 10
2009-02-13 09:58:33 51°16.174 2°54.199 45.6 3.2 36 10
2009-02-13 09:58:37 51°16.177 2°54.202 42.7 3.4 33 10
2009-02-13 09:58:44 51°16.182 2°54.208 40.4 3.5 31 9.9
2009-02-13 09:58:49 51°16.187 2°54.212 39.1 3.6 31 9.9
2009-02-13 09:58:53 51°16.19 2°54.215 38.1 3.7 31 9.9
2009-02-13 09:58:58 51°16.195 2°54.219 38.1 3.7 31 9.9
2009-02-13 09:59:04 51°16.2 2°54.225 40.6 3.6 36 9.9
2009-02-13 09:59:09 51°16.204 2°54.23 43.6 3.5 38 9.9
2009-02-13 09:59:13 51°16.207 2°54.234 46.3 3.5 42 9.9
2009-02-13 09:59:17 51°16.209 2°54.239 48.7 3.3 43 10
2009-02-13 09:59:23 51°16.213 2°54.245 50.6 3.3 46 10
2009-02-13 09:59:29 51°16.217 2°54.251 51.6 3.2 43 10
2009-02-13 09:59:33 51°16.219 2°54.255 51.9 3.1 48 10
2009-02-13 09:59:39 51°16.223 2°54.26 51.4 3 42 10.1
2009-02-13 09:59:43 51°16.225 2°54.264 50.3 2.9 44 10
2009-02-13 09:59:48 51°16.228 2°54.268 48.7 2.8 39 9.9
2009-02-13 09:59:53 51°16.231 2°54.272 47.4 2.7 41 10
2009-02-13 09:59:58 51°16.234 2°54.275 46.1 2.6 35 10
2009-02-13 10:00:03 51°16.236 2°54.278 45.1 2.4 38 10
2009-02-13 10:00:09 51°16.239 2°54.282 44.2 2.3 34 10
2009-02-13 10:00:14 51°16.242 2°54.284 43.3 2.2 34 9.9
2009-02-13 10:00:19 51°16.245 2°54.286 42.2 2.1 27 9.9
2009-02-13 10:00:24 51°16.247 2°54.288 41.2 2 28 9.9
2009-02-13 10:00:29 51°16.249 2°54.29 39.9 1.9 24 10
2009-02-13 10:00:33 51°16.251 2°54.291 38.6 1.8 25 10
2009-02-13 10:00:39 51°16.254 2°54.293 37.1 1.7 15 10
2009-02-13 10:00:44 51°16.256 2°54.294 35.9 1.6 20 10
2009-02-13 10:00:49 51°16.258 2°54.295 34.4 1.6 12 10
2009-02-13 10:00:53 51°16.259 2°54.296 33.2 1.4 14 10
2009-02-13 10:00:57 51°16.261 2°54.296 31.9 1.4 5 9.9
2009-02-13 10:01:04 51°16.263 2°54.296 30.6 1.3 6 10
2009-02-13 10:01:09 51°16.265 2°54.296 29.5 1.4 359 10
2009-02-13 10:01:13 51°16.267 2°54.297 28.9 1.3 -999 9.9
2009-02-13 10:01:18 51°16.268 2°54.296 27.7 1.3 353 10
2009-02-13 10:01:24 51°16.27 2°54.296 26.6 1.2 356 9.9
2009-02-13 10:01:29 51°16.272 2°54.295 25.1 1.2 344 9.9
2009-02-13 10:01:33 51°16.273 2°54.295 24.4 1.1 349 9.9
2009-02-13 10:01:37 51°16.274 2°54.294 23.4 1.2 336 9.9
2009-02-13 10:01:43 51°16.276 2°54.293 22.2 1.1 339 10
2009-02-13 10:01:49 51°16.278 2°54.292 21.4 1 337 9.9
2009-02-13 10:01:53 51°16.278 2°54.291 20.6 1.1 336 10
2009-02-13 10:01:59 51°16.28 2°54.29 19.8 1.1 337 10
2009-02-13 10:02:04 51°16.281 2°54.289 18.9 1.1 327 10
2009-02-13 10:02:09 51°16.282 2°54.287 18.1 1 327 10
2009-02-13 10:02:13 51°16.283 2°54.286 17.5 1 325 10
2009-02-13 10:02:18 51°16.284 2°54.285 16.6 1.1 320 10.1
2009-02-13 10:02:23 51°16.286 2°54.284 16.1 1 327 10.1
2009-02-13 10:02:29 51°16.287 2°54.282 15.2 1.1 315 10.1
2009-02-13 10:02:34 51°16.288 2°54.28 14.5 0.9 315 10
2009-02-13 10:02:39 51°16.289 2°54.279 13.9 1 311 10
2009-02-13 10:02:44 51°16.289 2°54.277 13.4 0.9 308 10
2009-02-13 10:02:49 51°16.29 2°54.275 12.6 1 306 10
2009-02-13 10:02:53 51°16.291 2°54.274 12.2 1 312 10
2009-02-13 10:02:59 51°16.292 2°54.272 11.5 1 307 10
2009-02-13 10:03:04 51°16.293 2°54.27 10.9 1.1 302 10
2009-02-13 10:03:09 51°16.293 2°54.268 10.4 1 300 10
2009-02-13 10:03:13 51°16.294 2°54.266 9.9 1 298 10
2009-02-13 10:03:19 51°16.295 2°54.264 9 1.1 298 10
2009-02-13 10:03:24 51°16.296 2°54.262 8.7 1 297 10
2009-02-13 10:03:29 51°16.296 2°54.26 7.8 1.1 294 10
2009-02-13 10:03:33 51°16.297 2°54.258 7.2 1 297 9.9
2009-02-13 10:03:38 51°16.297 2°54.256 6.6 1.1 296 10
2009-02-13 10:03:43 51°16.298 2°54.254 5.9 1.1 291 10.1
2009-02-13 10:03:49 51°16.298 2°54.251 5.4 1.1 290 10.1
2009-02-13 10:03:53 51°16.299 2°54.249 4.7 1.1 286 9.9
2009-02-13 10:03:57 51°16.299 2°54.248 3.8 1 285 10.1
2009-02-13 10:04:03 51°16.299 2°54.245 3.5 1 287 10
2009-02-13 10:04:09 51°16.3 2°54.242 2.5 1.2 279 10
2009-02-13 10:04:14 51°16.3 2°54.24 2 1 283 10
2009-02-13 10:04:19 51°16.3 2°54.237 1.3 1.1 284 10
2009-02-13 10:04:24 51°16.3 2°54.235 0.7 1.1 279 10
2009-02-13 10:04:28 51°16.301 2°54.233 0.1 1.2 277 10
2009-02-13 10:04:33 51°16.301 2°54.231 359.1 1.1 279 10
2009-02-13 10:04:39 51°16.301 2°54.228 358.5 1.1 278 10
2009-02-13 10:04:43 51°16.301 2°54.225 357.9 1.1 279 10.1
2009-02-13 10:04:49 51°16.301 2°54.222 357.1 1.3 272 10.1
2009-02-13 10:04:54 51°16.301 2°54.22 356.2 1.1 276 10.1
2009-02-13 10:04:59 51°16.302 2°54.217 355.7 1.3 273 10
2009-02-13 10:05:04 51°16.302 2°54.215 355.1 1.1 272 10
2009-02-13 10:05:09 51°16.302 2°54.213 354.6 1.2 269 10.1
2009-02-13 10:05:13 51°16.302 2°54.211 354 1.2 270 10.1
2009-02-13 10:05:19 51°16.302 2°54.208 353.3 1.2 272 10
2009-02-13 10:05:24 51°16.302 2°54.205 353 1.1 270 10.1
2009-02-13 10:05:29 51°16.302 2°54.202 352.1 1.3 270 10.1
2009-02-13 10:05:33 51°16.302 2°54.2 351.5 1.2 267 10.1
2009-02-13 10:05:38 51°16.301 2°54.197 351 1.2 263 10
2009-02-13 10:05:44 51°16.301 2°54.194 350.5 1.2 263 10
2009-02-13 10:05:49 51°16.301 2°54.192 350.1 1.2 265 10
2009-02-13 10:05:53 51°16.301 2°54.189 349.5 1.3 266 10.1
2009-02-13 10:05:57 51°16.301 2°54.187 349.1 1.3 266 10.1
2009-02-13 10:06:03 51°16.3 2°54.184 348.8 1.2 263 10.1
2009-02-13 10:06:09 51°16.3 2°54.181 348.4 1.2 265 10.1
2009-02-13 10:06:13 51°16.3 2°54.179 347.9 1.2 264 10.2
2009-02-13 10:06:17 51°16.3 2°54.177 347.7 1.3 264 10.1
2009-02-13 10:06:23 51°16.3 2°54.174 347.2 1.3 262 10.1
2009-02-13 10:06:29 51°16.299 2°54.17 347 1.2 261 10.1
2009-02-13 10:06:33 51°16.299 2°54.168 346.4 1.3 262 10.2
2009-02-13 10:06:38 51°16.299 2°54.165 345.6 1.2 263 10.1
2009-02-13 10:06:43 51°16.298 2°54.162 345.1 1.3 260 10.1
2009-02-13 10:06:49 51°16.298 2°54.159 344.6 1.2 260 10.1
2009-02-13 10:06:53 51°16.298 2°54.157 344 1.3 258 10.2
2009-02-13 10:06:59 51°16.297 2°54.154 343.2 1.2 258 10.1
2009-02-13 10:07:04 51°16.297 2°54.151 342.6 1.3 258 10.1
2009-02-13 10:07:09 51°16.296 2°54.148 341.8 1.2 257 10.1
2009-02-13 10:07:13 51°16.296 2°54.146 341.1 1.3 255 10.1
2009-02-13 10:07:19 51°16.296 2°54.143 340.2 1.3 254 10.1
2009-02-13 10:07:24 51°16.295 2°54.14 339.3 1.4 255 10.2
2009-02-13 10:07:29 51°16.295 2°54.137 338.5 1.3 254 10.2
2009-02-13 10:07:33 51°16.294 2°54.135 337.6 1.3 251 10.1
2009-02-13 10:07:39 51°16.294 2°54.131 336.6 1.3 252 10.1
2009-02-13 10:07:44 51°16.293 2°54.128 335.8 1.4 254 10.1
2009-02-13 10:07:49 51°16.293 2°54.125 334.7 1.3 254 10.1
2009-02-13 10:07:53 51°16.292 2°54.123 333.8 1.3 255 10.1
2009-02-13 10:07:58 51°16.292 2°54.12 332.8 1.4 252 10.2
2009-02-13 10:08:04 51°16.291 2°54.117 331.9 1.4 251 10.2
2009-02-13 10:08:09 51°16.29 2°54.114 331 1.4 252 10.1
2009-02-13 10:08:13 51°16.29 2°54.111 330 1.4 252 10.1
2009-02-13 10:08:17 51°16.289 2°54.109 328.8 1.3 251 10.1
2009-02-13 10:08:23 51°16.288 2°54.105 327.9 1.4 252 10.1
2009-02-13 10:08:29 51°16.288 2°54.102 326.6 1.4 252 10.2
2009-02-13 10:08:33 51°16.287 2°54.1 325.6 1.4 253 10.2
2009-02-13 10:08:39 51°16.287 2°54.097 324.9 1.4 252 10.2
2009-02-13 10:08:43 51°16.286 2°54.094 324.5 1.4 260 10.1
2009-02-13 10:08:49 51°16.286 2°54.09 324.5 1.6 265 10.2
2009-02-13 10:08:53 51°16.286 2°54.087 325.4 1.6 273 10.2
2009-02-13 10:08:58 51°16.286 2°54.083 327.4 1.6 276 10.1
2009-02-13 10:09:03 51°16.287 2°54.08 330 1.7 282 10.2
2009-02-13 10:09:09 51°16.288 2°54.075 333.3 1.8 285 10.1
2009-02-13 10:09:14 51°16.289 2°54.071 337 1.8 292 10.1
2009-02-13 10:09:19 51°16.29 2°54.068 341.1 1.8 296 10.1
2009-02-13 10:09:24 51°16.291 2°54.065 345.4 1.8 303 10.2
2009-02-13 10:09:29 51°16.293 2°54.061 349.6 1.8 309 10.2
2009-02-13 10:09:33 51°16.294 2°54.059 354 1.7 316 10.2
2009-02-13 10:09:39 51°16.296 2°54.056 358.8 1.7 322 10.2
2009-02-13 10:09:44 51°16.298 2°54.054 3.9 1.7 328 10.1
2009-02-13 10:09:49 51°16.3 2°54.053 9.2 1.6 335 10.1
2009-02-13 10:09:53 51°16.302 2°54.052 14.4 1.5 343 10.2
2009-02-13 10:09:58 51°16.304 2°54.052 19.7 1.4 355 10.1
2009-02-13 10:10:04 51°16.306 2°54.052 25.3 1.4 4 10.2
2009-02-13 10:10:09 51°16.308 2°54.053 30.6 1.4 19 10.3
2009-02-13 10:10:13 51°16.31 2°54.054 36.2 1.4 26 10.2
2009-02-13 10:10:17 51°16.311 2°54.055 41.5 1.4 38 10.2
2009-02-13 10:10:24 51°16.313 2°54.058 46.8 1.4 50 10.2
2009-02-13 10:10:29 51°16.314 2°54.061 52.3 1.4 57 10.2
2009-02-13 10:10:33 51°16.315 2°54.063 57.5 1.5 71 10.2
2009-02-13 10:10:37 51°16.315 2°54.066 63.3 1.6 79 10.3
2009-02-13 10:10:43 51°16.315 2°54.071 68.4 1.7 90 10.2
2009-02-13 10:10:49 51°16.315 2°54.075 73.6 1.8 93 10.2
2009-02-13 10:10:53 51°16.314 2°54.079 79.3 2 105 10.2
2009-02-13 10:10:58 51°16.314 2°54.083 84.2 2.1 111 10.2
2009-02-13 10:11:03 51°16.312 2°54.087 90 2.2 116 10.3
2009-02-13 10:11:09 51°16.31 2°54.093 94.7 2.4 122 10.2
2009-02-13 10:11:13 51°16.309 2°54.097 98.8 2.5 119 10.2
2009-02-13 10:11:19 51°16.306 2°54.103 100.1 2.9 122 10.2
2009-02-13 10:11:24 51°16.304 2°54.11 100.8 3.2 115 10.2
2009-02-13 10:11:29 51°16.302 2°54.117 100.5 3.6 116 10.2
2009-02-13 10:11:34 51°16.3 2°54.125 99.9 3.8 112 10.2
2009-02-13 10:11:39 51°16.298 2°54.133 98.5 4.1 110 10.2
2009-02-13 10:11:44 51°16.296 2°54.142 96 4.2 105 10.1
2009-02-13 10:11:48 51°16.295 2°54.15 93.9 4.4 103 10.2
2009-02-13 10:11:53 51°16.294 2°54.16 90.8 4.4 100 10.1
2009-02-13 10:11:59 51°16.293 2°54.171 89.2 4.5 99 10.1
2009-02-13 10:12:04 51°16.292 2°54.181 87.3 4.4 96 10.2
2009-02-13 10:12:09 51°16.291 2°54.19 86.5 4.3 99 10.1
2009-02-13 10:12:13 51°16.291 2°54.198 86.4 4.1 97 10.2
2009-02-13 10:12:18 51°16.29 2°54.207 87 4.1 103 10.2
2009-02-13 10:12:24 51°16.289 2°54.217 88.4 3.9 99 10
2009-02-13 10:12:29 51°16.287 2°54.225 90.3 3.8 105 10.1
2009-02-13 10:12:33 51°16.286 2°54.231 92.1 3.8 108 10.1
2009-02-13 10:12:37 51°16.284 2°54.237 94.7 3.6 110 10.1
2009-02-13 10:12:44 51°16.282 2°54.247 97.3 3.4 117 10.2
2009-02-13 10:12:49 51°16.279 2°54.253 99.8 3.2 120 10.1
2009-02-13 10:12:53 51°16.278 2°54.258 102.1 3 121 10.1
2009-02-13 10:12:58 51°16.275 2°54.263 103.5 3 125 10.1
2009-02-13 10:13:03 51°16.273 2°54.268 104.4 2.8 127 10.1
2009-02-13 10:13:09 51°16.27 2°54.274 105.9 2.7 128 10.1
2009-02-13 10:13:13 51°16.268 2°54.277 106.5 2.6 131 10.1
2009-02-13 10:13:18 51°16.266 2°54.281 107.8 2.5 132 10.1
2009-02-13 10:13:23 51°16.263 2°54.285 108.4 2.5 138 10.1
2009-02-13 10:13:29 51°16.26 2°54.29 109.5 2.4 136 10.1
2009-02-13 10:13:34 51°16.258 2°54.293 110.6 2.3 139 10.1
2009-02-13 10:13:39 51°16.255 2°54.296 111.2 2.2 142 10.2
2009-02-13 10:13:44 51°16.253 2°54.298 111.7 2.1 147 10.2
2009-02-13 10:13:49 51°16.251 2°54.301 112.8 2 146 10.1
2009-02-13 10:13:54 51°16.248 2°54.303 114 2 151 10.1
2009-02-13 10:13:59 51°16.246 2°54.305 115.3 1.9 152 10.1
2009-02-13 10:14:04 51°16.243 2°54.307 116.3 2 154 10.1
2009-02-13 10:14:09 51°16.241 2°54.309 117.6 1.8 154 10.2
2009-02-13 10:14:13 51°16.239 2°54.31 118.5 1.9 161 10.2
2009-02-13 10:14:19 51°16.236 2°54.312 119.4 1.8 160 10.2
2009-02-13 10:14:24 51°16.234 2°54.313 120.2 1.9 166 10.1
2009-02-13 10:14:29 51°16.232 2°54.314 121.2 1.6 159 10.2
2009-02-13 10:14:33 51°16.229 2°54.315 121.8 1.9 170 10.2
2009-02-13 10:14:39 51°16.227 2°54.316 122 1.6 163 10.2
2009-02-13 10:14:44 51°16.224 2°54.317 122.7 1.9 170 10.1
2009-02-13 10:14:49 51°16.222 2°54.318 123 1.6 169 10.2
2009-02-13 10:14:53 51°16.22 2°54.318 123.5 1.8 173 10.2
2009-02-13 10:14:57 51°16.218 2°54.319 123.7 1.6 168 10.2
2009-02-13 10:15:04 51°16.215 2°54.32 124.2 1.7 172 10.2
2009-02-13 10:15:09 51°16.213 2°54.32 124.2 1.6 171 10.2
2009-02-13 10:15:13 51°16.211 2°54.32 124.2 1.7 176 10.2
2009-02-13 10:15:18 51°16.209 2°54.321 124.5 1.5 172 10.2
2009-02-13 10:15:23 51°16.206 2°54.321 124.5 1.7 180 10.2
2009-02-13 10:15:29 51°16.204 2°54.321 124.8 1.5 176 10.2
2009-02-13 10:15:33 51°16.202 2°54.321 124.8 1.6 181 10.3
2009-02-13 10:15:38 51°16.2 2°54.322 124.7 1.5 177 10.2
2009-02-13 10:15:43 51°16.198 2°54.321 124.7 1.6 184 10.2
2009-02-13 10:15:49 51°16.196 2°54.322 124.9 1.5 180 10.2
2009-02-13 10:15:54 51°16.194 2°54.321 124.9 1.5 181 10.2
2009-02-13 10:15:59 51°16.192 2°54.321 124.7 1.4 182 10.2
2009-02-13 10:16:04 51°16.189 2°54.321 124.6 1.5 184 10.2
2009-02-13 10:16:08 51°16.188 2°54.321 124.7 1.4 182 10.2
2009-02-13 10:16:13 51°16.186 2°54.321 124.6 1.5 185 10.3
2009-02-13 10:16:19 51°16.184 2°54.321 124.5 1.4 184 10.3
2009-02-13 10:16:24 51°16.182 2°54.32 124.4 1.3 187 10.2
2009-02-13 10:16:29 51°16.18 2°54.32 124.4 1.3 187 10.3
2009-02-13 10:16:33 51°16.178 2°54.32 124 1.3 188 10.2
2009-02-13 10:16:39 51°16.176 2°54.319 124 1.4 190 10.2
2009-02-13 10:16:44 51°16.174 2°54.319 123.7 1.3 189 10.3
2009-02-13 10:16:49 51°16.173 2°54.318 123.5 1.3 189 10.3
2009-02-13 10:16:53 51°16.171 2°54.318 123.4 1.3 190 10.3
2009-02-13 10:16:59 51°16.169 2°54.317 122.9 1.3 191 10.3
2009-02-13 10:17:04 51°16.167 2°54.316 123 1.2 193 10.3
2009-02-13 10:17:09 51°16.165 2°54.316 122.5 1.4 196 10.2
2009-02-13 10:17:13 51°16.164 2°54.315 122.8 1.1 191 10.2
2009-02-13 10:17:17 51°16.163 2°54.315 122.4 1.5 196 10.3
2009-02-13 10:17:24 51°16.161 2°54.314 122.4 1.1 194 10.3
2009-02-13 10:17:29 51°16.158 2°54.313 122.4 1.4 198 10.3
2009-02-13 10:17:33 51°16.158 2°54.312 122.1 1.1 195 10.3
2009-02-13 10:17:38 51°16.156 2°54.312 122.2 1.3 198 10.2
2009-02-13 10:17:43 51°16.154 2°54.311 121.8 1.1 196 10.3
2009-02-13 10:17:49 51°16.152 2°54.31 121.7 1.2 199 10.3
2009-02-13 10:17:53 51°16.151 2°54.309 121.6 1.1 200 10.3
2009-02-13 10:17:59 51°16.149 2°54.308 121.8 1.2 200 10.3
2009-02-13 10:18:03 51°16.148 2°54.307 121.7 1.2 201 10.3
2009-02-13 10:18:09 51°16.146 2°54.306 121.3 1.3 203 10.3
2009-02-13 10:18:14 51°16.145 2°54.305 121.7 1.1 200 10.3
2009-02-13 10:18:19 51°16.143 2°54.304 121.9 1.2 202 10.3
2009-02-13 10:18:24 51°16.142 2°54.303 121.7 1.2 207 10.2
2009-02-13 10:18:28 51°16.141 2°54.302 121.7 1.2 205 10.3
2009-02-13 10:18:33 51°16.139 2°54.301 122 1.2 205 10.3
2009-02-13 10:18:39 51°16.137 2°54.299 122 1.2 206 10.3
2009-02-13 10:18:44 51°16.136 2°54.298 122 1.1 208 10.3
2009-02-13 10:18:49 51°16.134 2°54.297 121.9 1.3 209 10.3
2009-02-13 10:18:53 51°16.133 2°54.296 121.7 1.1 204 10.3
2009-02-13 10:18:59 51°16.131 2°54.294 122 1.2 208 10.3
2009-02-13 10:19:04 51°16.13 2°54.293 121.5 1.2 211 10.3
2009-02-13 10:19:09 51°16.129 2°54.292 121.8 1.1 209 10.3
2009-02-13 10:19:13 51°16.128 2°54.291 121.6 1.2 210 10.4
2009-02-13 10:19:17 51°16.126 2°54.29 121.5 1.1 210 10.3
2009-02-13 10:19:24 51°16.125 2°54.288 121.6 1.1 210 10.4
2009-02-13 10:19:29 51°16.123 2°54.287 121.5 1.2 213 10.4
2009-02-13 10:19:33 51°16.122 2°54.286 121.6 1.1 214 10.4
2009-02-13 10:19:37 51°16.121 2°54.284 121.5 1.2 216 10.3
2009-02-13 10:19:44 51°16.119 2°54.282 121.4 1.2 214 10.3
2009-02-13 10:19:49 51°16.118 2°54.281 121.4 1.1 214 10.3
2009-02-13 10:19:53 51°16.117 2°54.28 121.4 1.2 215 10.4
2009-02-13 10:19:58 51°16.116 2°54.278 121.1 1.2 214 10.3
2009-02-13 10:20:03 51°16.114 2°54.277 121.3 1 212 10.4
2009-02-13 10:20:09 51°16.113 2°54.275 121.2 1.2 214 10.4
2009-02-13 10:20:13 51°16.112 2°54.274 120.7 1.1 216 10.4
2009-02-13 10:20:19 51°16.11 2°54.272 120.6 1.2 215 10.3
2009-02-13 10:20:24 51°16.109 2°54.271 120.6 1 219 10.4
2009-02-13 10:20:29 51°16.108 2°54.269 120.3 1.3 218 10.4
2009-02-13 10:20:34 51°16.107 2°54.268 120.3 1 222 10.3
2009-02-13 10:20:39 51°16.105 2°54.266 120.3 1.3 218 10.4
2009-02-13 10:20:44 51°16.104 2°54.265 120.2 1.1 219 10.4
2009-02-13 10:20:49 51°16.103 2°54.263 120 1.2 220 10.4
2009-02-13 10:20:53 51°16.102 2°54.262 120 1.1 223 10.4
2009-02-13 10:20:59 51°16.1 2°54.26 119.7 1.3 220 10.3
2009-02-13 10:21:04 51°16.099 2°54.258 120 1 221 10.3
2009-02-13 10:21:09 51°16.098 2°54.256 119.8 1.3 219 10.4
2009-02-13 10:21:13 51°16.097 2°54.255 119.7 1.1 221 10.3
2009-02-13 10:21:19 51°16.095 2°54.253 119.8 1.1 225 10.4
2009-02-13 10:21:24 51°16.094 2°54.251 119.2 1.3 225 10.4
2009-02-13 10:21:29 51°16.093 2°54.25 119.1 1.2 223 10.3
2009-02-13 10:21:33 51°16.092 2°54.248 119.2 1.2 222 10.3
2009-02-13 10:21:37 51°16.091 2°54.247 119.6 1 222 10.3
2009-02-13 10:21:44 51°16.089 2°54.244 119.2 1.2 222 10.4
2009-02-13 10:21:49 51°16.088 2°54.243 119 1.1 222 10.4
2009-02-13 10:21:53 51°16.087 2°54.241 119.1 1.1 224 10.4
2009-02-13 10:21:58 51°16.086 2°54.239 119.1 1.2 224 10.4
2009-02-13 10:22:04 51°16.085 2°54.237 118.8 1.2 224 10.4
2009-02-13 10:22:09 51°16.084 2°54.236 119.2 1 226 10.4
2009-02-13 10:22:13 51°16.083 2°54.234 119 1.2 223 10.5
2009-02-13 10:22:18 51°16.082 2°54.232 119 1.1 227 10.5
2009-02-13 10:22:23 51°16.081 2°54.23 119.1 1.2 226 10.5
2009-02-13 10:22:29 51°16.079 2°54.228 119.2 1.1 226 10.4
2009-02-13 10:22:34 51°16.078 2°54.227 119.4 1.1 225 10.4
2009-02-13 10:22:39 51°16.077 2°54.225 119.6 1.1 220 10.4
2009-02-13 10:22:44 51°16.076 2°54.224 119.2 1 211 10.4
2009-02-13 10:22:48 51°16.074 2°54.223 118.3 1 203 10.4
2009-02-13 10:22:53 51°16.073 2°54.222 115.5 1.1 193 10.4
2009-02-13 10:22:59 51°16.071 2°54.222 112.6 1 184 10.4
2009-02-13 10:23:04 51°16.07 2°54.222 109.9 1 174 10.5
2009-02-13 10:23:09 51°16.069 2°54.223 105.4 0.9 163 10.5
2009-02-13 10:23:14 51°16.067 2°54.224 100.2 1 157 10.6
2009-02-13 10:23:19 51°16.066 2°54.225 95.3 0.9 150 10.5
2009-02-13 10:23:24 51°16.066 2°54.226 91.8 0.8 137 10.4
2009-02-13 10:23:29 51°16.065 2°54.227 87 0.8 128 10.4
2009-02-13 10:23:33 51°16.064 2°54.228 82.2 0.8 114 10.5
2009-02-13 10:23:39 51°16.064 2°54.231 77.1 0.9 103 10.4
2009-02-13 10:23:44 51°16.065 2°54.232 71.9 0.8 79 10.4
2009-02-13 10:23:49 51°16.065 2°54.234 66.4 0.9 65 10.4
2009-02-13 10:23:53 51°16.066 2°54.236 61 1 51 10.4
2009-02-13 10:23:57 51°16.067 2°54.237 54.1 1.1 40 10.4
2009-02-13 10:24:04 51°16.069 2°54.239 49.9 1.3 27 10.4
2009-02-13 10:24:09 51°16.071 2°54.24 43.9 1.4 15 10.4
2009-02-13 10:24:13 51°16.072 2°54.24 37.3 1.5 13 10.4
2009-02-13 10:24:18 51°16.074 2°54.241 32.6 1.8 3 10.4
2009-02-13 10:24:23 51°16.077 2°54.241 27.5 2 3 10.5
2009-02-13 10:24:29 51°16.081 2°54.241 23.6 2.4 4 10.5
2009-02-13 10:24:33 51°16.084 2°54.241 20.4 2.7 358 10.5
2009-02-13 10:24:37 51°16.087 2°54.241 18.7 2.9 2 10.6
2009-02-13 10:24:43 51°16.092 2°54.241 18.1 3.2 -999 10.5
2009-02-13 10:24:49 51°16.097 2°54.241 18.1 3.2 4 10.4
2009-02-13 10:24:54 51°16.101 2°54.241 18.6 3.3 -999 10.4
2009-02-13 10:24:59 51°16.106 2°54.242 19.3 3.3 5 10.4
2009-02-13 10:25:04 51°16.111 2°54.242 20.4 3.4 3 10.4